Location: *
(55.6049°S, 142.1985°W)
Time: 15:29:45
(UTC+00:00)

Landsat 5 - Pass Details

Date: 12 May 2021
Orbit: 527 x 654 km, 98.2° (Epoch: 17 June)

Event Time Altitude Azimuth Distance (km) Brightness Sun altitude
Rises 16:10:03 0° 169° (S) 2,939 6.9 -8.9°
Reaches altitude 10° 16:12:20 10° 176° (S) 2,044 6.1 -8.6°
Maximum altitude 16:16:28 39° 244° (WSW) 988 4.1 -8.1°
Drops below altitude 10° 16:20:40 10° 311° (NW) 2,072 6.0 -7.5°
Sets 16:23:00 0° 319° (NW) 2,985 6.9 -7.2°
